Weather History for Yellowstone, WY

Change the Weather History Date:

Saturday, March 16, 2013

  Actual Average Record
Temperature  
Mean Temperature 32 °F 23 °F  
Max Temperature 40 °F 37 °F 48 °F (2010)
Min Temperature 23 °F 9 °F -15 °F (2002)
Degree Days  
Heating Degree Days 33 42  
Month to date heating degree days 677 707  
Since 1 July heating degree days 8544 8644  
Cooling Degree Days 0 0  
Month to date cooling degree days 0 0  
Year to date cooling degree days 0 0  
Moisture  
Dew Point 18 °F    
Average Humidity 59    
Maximum Humidity 92    
Minimum Humidity 25    
Precipitation  
Precipitation 0.02 in 0.05 in 0.79 in (2011)
Month to date precipitation 0.74 0.50  
Year to date precipitation 3.08 4.02  
Sea Level Pressure  
Sea Level Pressure 29.91 in    
Wind  
Wind Speed 3 mph (West)    
Max Wind Speed 16 mph    
Max Gust Speed 26 mph    
T = Trace of Precipitation, MM = Missing Value Source: NWS Daily Summary

Daily Weather History Graph

Daily Weather History Graph

Search for Another Location

Airport:

Trip Planner

Search our weather history database for the weather conditions in past years. The results will help you decide how hot, cold, wet, or windy it might be!

Date:

Astronomy

Mar. 16, 2013 Rise Set
Actual Time 7:31 AM MDT 7:29 PM MDT
Civil Twilight 7:02 AM MDT 7:58 PM MDT
Nautical Twilight 6:28 AM MDT 8:32 PM MDT
Astronomical Twilight 5:54 AM MDT 9:07 PM MDT
Moon 9:51 AM MDT (3/16) No Moon Set
Length of Visible Light 12h 55m
Length of Day
11h 57m
Waxing Crescent, 23% of the Moon is Illuminated
Mar 16
Waxing Crescent
Mar 19
First Quarter
Mar 27
Full
Apr 2
Last Quarter
Apr 10
New

Hourly Weather History & Observations

Time (MDT) Temp. Windchill Dew Point Humidity Pressure Visibility Wind Dir Wind Speed Gust Speed Precip Events Conditions
12:56 AM 26.1 °F - 23.0 °F 88% 29.98 in - Calm Calm - N/A   Unknown
1:56 AM 26.1 °F - 23.0 °F 88% 29.99 in - Calm Calm - N/A   Unknown
2:56 AM 26.1 °F - 21.9 °F 84% 29.97 in - Calm Calm - N/A   Unknown
3:56 AM 26.1 °F - 23.0 °F 88% 29.96 in - Calm Calm - N/A   Unknown
4:56 AM 27.0 °F - 24.1 °F 89% 29.95 in - Calm Calm - N/A   Unknown
5:56 AM 24.1 °F - 21.9 °F 91% 29.97 in - Calm Calm - N/A   Unknown
6:56 AM 26.1 °F - 23.0 °F 88% 29.97 in - Calm Calm - N/A   Unknown
7:56 AM 24.1 °F - 21.9 °F 91% 29.99 in - Calm Calm - N/A   Unknown
8:56 AM 27.0 °F - 24.1 °F 89% 29.99 in - Calm Calm - N/A   Unknown
9:56 AM 33.1 °F 30.0 °F 19.9 °F 59% 29.96 in - Variable 3.5 mph - N/A   Unknown
10:56 AM 35.1 °F 30.1 °F 15.1 °F 44% 29.96 in - Variable 5.8 mph 16.1 mph N/A   Unknown
11:56 AM 36.0 °F 32.1 °F 12.0 °F 37% 29.95 in - West 4.6 mph - N/A   Unknown
12:56 PM 39.0 °F 32.3 °F 7.0 °F 27% 29.92 in - WNW 10.4 mph 20.7 mph N/A   Unknown
1:56 PM 39.0 °F 33.4 °F 9.0 °F 29% 29.91 in - SW 8.1 mph 23.0 mph N/A   Unknown
2:56 PM 37.9 °F 29.2 °F 10.9 °F 33% 29.91 in - WNW 15.0 mph 20.7 mph N/A   Unknown
3:56 PM 37.9 °F 34.4 °F 15.1 °F 39% 29.88 in - Variable 4.6 mph 16.1 mph N/A   Unknown
4:56 PM 37.9 °F 33.5 °F 12.0 °F 35% 29.86 in - Variable 5.8 mph - N/A   Unknown
5:56 PM 35.1 °F 32.2 °F 10.9 °F 37% 29.89 in - Variable 3.5 mph - N/A   Unknown
6:56 PM 32.0 °F - 12.9 °F 45% 29.90 in - Calm Calm - N/A   Unknown
7:56 PM 30.0 °F - 18.0 °F 61% 29.89 in - Calm Calm - N/A   Unknown
8:56 PM 28.0 °F - 19.0 °F 69% 29.86 in - Calm Calm - N/A   Unknown
9:56 PM 27.0 °F - 19.9 °F 75% 29.82 in - Calm Calm - N/A   Unknown
10:56 PM 30.9 °F 27.5 °F 19.0 °F 61% 29.75 in - Variable 3.5 mph - N/A   Unknown
11:56 PM 30.0 °F 24.1 °F 18.0 °F 61% 29.71 in - Variable 5.8 mph - N/A   Unknown